Weather reports worldwide

Advertisment
Braemar, United Kingdom (99089): temperature & dewpoint: 19.01.2017 01:00:00 - 25.01.2017 01:00:00 (GMT)Braemar, United Kingdom (99089): temperature -20cm & temperature -100cm: 19.01.2017 01:00:00 - 25.01.2017 01:00:00 (GMT)Braemar, United Kingdom (99089): precipitation: 19.01.2017 01:00:00 - 25.01.2017 01:00:00 (GMT)
Date & Time tt [°C] td [°C] tt -20cm [°C] tt -100cm [°C] rr [mm]
25.01.2017 01:00:00 8,9 5,9 - - -
25.01.2017 00:00:00 8,8 6,0 - - 0,0
24.01.2017 23:00:00 8,4 6,4 - - 0,0
24.01.2017 22:00:00 8,4 5,6 - - 0,0
24.01.2017 21:00:00 8,8 4,9 - - 0,0
24.01.2017 20:00:00 8,4 5,2 - - 0,0
24.01.2017 19:00:00 8,0 4,7 - - 0,0
24.01.2017 18:00:00 7,9 5,0 - - 0,0
24.01.2017 17:00:00 8,0 5,5 - - 0,0
24.01.2017 16:00:00 8,4 5,0 - - 0,0
24.01.2017 15:00:00 8,6 5,3 - - 0,0
24.01.2017 14:00:00 8,8 5,2 - - 0,0
24.01.2017 13:00:00 9,0 5,2 - - 0,0
24.01.2017 12:00:00 8,2 5,1 - - 0,0
24.01.2017 11:00:00 8,0 4,8 - - 0,0
24.01.2017 10:00:00 7,8 4,6 - - 0,0
24.01.2017 09:00:00 7,0 4,4 1,7 4,0 0,0
24.01.2017 08:00:00 6,8 4,1 - - 0,0
24.01.2017 07:00:00 6,4 3,7 - - 0,0
24.01.2017 06:00:00 6,1 3,4 - - 0,0
24.01.2017 05:00:00 6,0 3,0 - - 0,0
24.01.2017 04:00:00 5,5 1,7 - - 0,0
24.01.2017 03:00:00 5,6 1,4 - - 0,0
24.01.2017 02:00:00 5,5 1,0 - - 0,0
24.01.2017 01:00:00 5,3 1,5 - - 0,0
24.01.2017 00:00:00 5,0 1,4 - - 0,0
23.01.2017 23:00:00 4,7 0,8 - - 0,0
23.01.2017 22:00:00 4,4 0,4 - - 0,0
23.01.2017 21:00:00 4,2 0,2 - - 0,0
23.01.2017 20:00:00 3,8 -0,2 - - 0,0
23.01.2017 19:00:00 4,1 0,3 - - 0,0
23.01.2017 18:00:00 3,9 0,3 - - 0,0
23.01.2017 17:00:00 3,4 -0,7 - - 0,0
23.01.2017 16:00:00 3,3 -1,6 - - 0,0
23.01.2017 15:00:00 3,5 -1,8 - - 0,0
23.01.2017 14:00:00 4,3 -1,6 - - 0,0
23.01.2017 13:00:00 4,5 -1,4 - - 0,0
23.01.2017 12:00:00 2,5 0,7 - - 0,0
23.01.2017 11:00:00 0,6 -0,3 - - 0,0
23.01.2017 10:00:00 0,1 -0,6 - - 0,0
23.01.2017 09:00:00 -0,6 -1,1 1,9 4,0 0,0
23.01.2017 08:00:00 -1,5 -1,7 - - 0,0
23.01.2017 07:00:00 -1,7 -2,0 - - 0,0
23.01.2017 06:00:00 -3,0 -3,6 - - 0,0
23.01.2017 05:00:00 -2,6 -3,1 - - 0,0
23.01.2017 04:00:00 -1,3 -1,8 - - 0,0
23.01.2017 03:00:00 -0,7 -2,3 - - 0,0
23.01.2017 02:00:00 0,6 -1,7 - - 0,0
23.01.2017 01:00:00 2,0 -0,2 - - 0,0
23.01.2017 00:00:00 2,4 0,0 - - 0,0
22.01.2017 23:00:00 2,3 0,1 - - 0,0
22.01.2017 22:00:00 1,6 0,2 - - 0,0
22.01.2017 21:00:00 1,6 0,3 - - 0,0
22.01.2017 20:00:00 0,6 -0,3 - - 0,0
22.01.2017 19:00:00 0,0 -0,6 - - 0,0
22.01.2017 18:00:00 0,1 -0,6 - - 0,0
22.01.2017 17:00:00 0,2 -0,7 - - 0,0
22.01.2017 16:00:00 0,5 -0,6 - - 0,0
22.01.2017 15:00:00 0,7 -0,6 - - 0,0
22.01.2017 14:00:00 0,5 -0,8 - - 0,0
22.01.2017 13:00:00 0,1 -1,4 - - 0,0
22.01.2017 12:00:00 -0,4 -1,6 - - 0,0
22.01.2017 11:00:00 -1,0 -2,2 - - 0,0
22.01.2017 10:00:00 -1,5 -2,6 - - 0,0
22.01.2017 09:00:00 -2,0 -2,8 2,2 4,2 0,0
22.01.2017 08:00:00 -2,5 -3,3 - - 0,0
22.01.2017 07:00:00 -2,6 -3,5 - - 0,0
22.01.2017 06:00:00 -3,2 -4,1 - - 0,0
22.01.2017 05:00:00 -3,7 -4,5 - - 0,0
22.01.2017 04:00:00 -3,8 -4,5 - - 0,0
22.01.2017 03:00:00 -4,3 -5,0 - - 0,0
22.01.2017 02:00:00 -5,3 -5,6 - - 0,0
22.01.2017 01:00:00 -6,8 -7,9 - - 0,0
22.01.2017 00:00:00 -5,0 -5,5 - - 0,0
21.01.2017 23:00:00 -5,1 -6,0 - - 0,0
21.01.2017 22:00:00 -5,0 -5,7 - - 0,0
21.01.2017 21:00:00 -2,8 -3,4 - - 0,0
21.01.2017 20:00:00 -3,3 -4,2 - - 0,0
21.01.2017 19:00:00 -2,9 -3,7 - - 0,0
21.01.2017 18:00:00 -1,2 -2,2 - - 0,0
21.01.2017 17:00:00 -0,8 -2,5 - - 0,0
21.01.2017 16:00:00 2,1 -1,8 - - 0,0
21.01.2017 15:00:00 4,8 -1,4 - - 0,0
21.01.2017 14:00:00 6,0 -0,7 - - 0,0
21.01.2017 13:00:00 5,1 0,0 - - 0,2
21.01.2017 12:00:00 2,5 -0,5 - - 0,0
21.01.2017 11:00:00 -0,2 -1,1 - - 0,0
21.01.2017 10:00:00 -1,7 -2,3 - - 0,0
21.01.2017 09:00:00 -2,8 -3,0 2,7 4,2 0,0
21.01.2017 08:00:00 -4,3 -4,7 - - 0,0
21.01.2017 07:00:00 -4,2 -4,5 - - 0,0
21.01.2017 06:00:00 -3,9 -4,4 - - 0,0
21.01.2017 05:00:00 -3,8 -4,4 - - 0,0
21.01.2017 04:00:00 -2,6 -3,0 - - 0,0
21.01.2017 03:00:00 -2,9 -3,1 - - 0,0
21.01.2017 02:00:00 -4,1 -4,8 - - 0,0
21.01.2017 01:00:00 -2,8 -3,0 - - 0,0
21.01.2017 00:00:00 -4,1 -4,7 - - 0,0
20.01.2017 23:00:00 -2,7 -3,1 - - 0,0
20.01.2017 22:00:00 -3,6 -4,1 - - 0,0
20.01.2017 21:00:00 -2,9 -3,3 - - 0,0
20.01.2017 20:00:00 -2,8 -3,2 - - 0,0
20.01.2017 19:00:00 -2,1 -2,5 - - 0,0
20.01.2017 18:00:00 -1,0 -1,1 - - 0,0
20.01.2017 17:00:00 -1,1 -1,6 - - 0,0
20.01.2017 16:00:00 -0,2 -1,0 - - 0,0
20.01.2017 15:00:00 3,4 0,8 - - 0,0
20.01.2017 14:00:00 1,7 1,5 - - 0,0
20.01.2017 13:00:00 1,3 1,1 - - 0,0
20.01.2017 12:00:00 0,3 0,2 - - 0,0
20.01.2017 11:00:00 -0,2 -0,3 - - 0,0
20.01.2017 10:00:00 0,0 -0,1 - - 0,0
20.01.2017 09:00:00 0,6 0,5 3,2 4,2 0,0
20.01.2017 08:00:00 0,5 0,3 - - 0,0
20.01.2017 07:00:00 0,7 0,0 - - 0,0
20.01.2017 06:00:00 0,6 -0,6 - - 0,0
20.01.2017 05:00:00 0,8 -0,2 - - 0,0
20.01.2017 04:00:00 1,2 0,0 - - 0,0
20.01.2017 03:00:00 1,9 0,6 - - 0,0
20.01.2017 02:00:00 1,5 0,7 - - 0,0
20.01.2017 01:00:00 1,3 0,4 - - 0,0
20.01.2017 00:00:00 0,7 0,1 - - 0,0
19.01.2017 23:00:00 0,6 0,2 - - 0,0
19.01.2017 22:00:00 -0,4 -0,5 - - 0,0
19.01.2017 21:00:00 -1,9 -2,0 - - 0,0
19.01.2017 20:00:00 -1,5 -1,8 - - 0,0
19.01.2017 19:00:00 -1,2 -1,8 - - 0,0
19.01.2017 18:00:00 0,6 -1,2 - - 0,0
19.01.2017 17:00:00 3,6 0,8 - - 0,0
19.01.2017 16:00:00 5,6 2,1 - - 0,0
19.01.2017 15:00:00 6,3 2,0 - - 0,0
19.01.2017 14:00:00 7,6 2,6 - - 0,0
19.01.2017 13:00:00 7,6 2,5 - - 0,0
19.01.2017 12:00:00 7,1 2,3 - - 0,0
19.01.2017 11:00:00 6,5 2,7 - - 0,0
19.01.2017 10:00:00 5,8 2,5 - - 0,0
19.01.2017 09:00:00 5,6 2,6 3,7 4,2 0,0
19.01.2017 08:00:00 5,3 2,5 - - 0,0
19.01.2017 07:00:00 5,6 2,6 - - 0,0
19.01.2017 06:00:00 5,5 2,7 - - 0,0
19.01.2017 05:00:00 5,1 2,6 - - 0,0
19.01.2017 04:00:00 5,3 2,9 - - 0,0
19.01.2017 03:00:00 5,8 3,1 - - 0,0
19.01.2017 02:00:00 5,6 3,0 - - 0,0
19.01.2017 01:00:00 5,4 3,3 - - 0,0

tt = temperature
td = dewpoint
tt -20cm = temperature -20cm
tt -100cm = temperature -100cm
rr = precipitation

Next stations